Location: St. Louis
(38.6270°N, 90.1994°W)
Time: 02:15:59
(UTC-06:00)

Transit 4A - Pass Details

Date: 04 December 2021
Orbit: 863 x 981 km, 66.8° (Epoch: 24 January)

Event Time Altitude Azimuth Distance (km) Brightness Sun altitude
Rises 02:20:47 0° 344° (NNW) 3,605 - -54.2°
Reaches altitude 10° 02:24:37 10° 7° (N) 2,682 - -53.4°
Maximum altitude 02:28:04 15° 41° (NE) 2,349 - -52.8°
Drops below altitude 10° 02:31:34 10° 75° (ENE) 2,711 - -52.1°
Exits shadow 02:32:08 - 79° (E) 2,824 10.9 -52.0°
Sets 02:35:26 0° 97° (E) 3,668 11.6 -51.4°
